Showing default

HULIANWANG DIGUI-158, 68132

Orbit data source: Space-Track

HULIANWANG DIGUI-158, 68132 is a payload satellite owned by Zhongguo Xingwang (CN) in LEO that was launched on Thu, 12 Mar 2026 UTC via a CHANG ZHENG 8A launch vehicle from the Wenchang Satellite Launch Center (WSC). Payload-class satellites include a variety of spacecraft equipped with specific instruments for various scientific and technological missions. These include communications satellites like Starlink; space stations such as the ISS; scientific satellites like the Hubble; Earth observation satellites from companies like Planet Labs, Umbra, and HawkEye 360; GPS; miniature CubeSats for education and research; and military/defense satellites.

Loading next visibility...
Identifier
68132, 2026-047D
Orbit
LEO
Country
Flag of CNCN / PRC
Related business
Manufacturer
CAST?
Mission
Operational spacecraft
Bus & Motor
XINGWANG C, Unknown motor
Mass
~700 kg wet, ~700 kg dry
Launch date (UTC)
2026-03-12 (1 month ago)
Launch vehicle
CHANG ZHENG 8A
Launch site
Wenchang Satellite Launch Center (WSC)
Object type
Payload
Rocket body
Debris
Shape & HBR
Unknown
Radar Cross Section
RCS unknown

Expand to show TLE details & history
Last TLE update: 21 hours ago

TLE from 21 hours ago
0 HULIANWANG DIGUI-158
1 68132U 26047D   26104.70090810 -.00000105  00000-0  38694-4 0  9998
2 68132  50.0073 286.6296 0002144 338.8634  21.2166 13.66629066  4571
Epoch: 2026-04-14T16:49Z
TLE epoch observation values (Epoch: 2026-04-14T16:49:18.459Z)
Latitude
Longitude
-168.5707°
Altitude
1,010.737 km
Speed
7.348 km/s
True Right ascension
19h 06m 31s
True Declination
0° 00' 00"
Sunlit
Object was in daylight at epoch
Visualization orbit readout
Latitude
Unknown
Longitude
Unknown
Altitude
Unknown
Speed
Unknown
Apparent Right ascension
Unknown
Apparent Declination
Unknown
Sunlit
N/A
Visualization observer readout
Local Sidereal Time
20:45:24
Azimuth
Unknown
Elevation
Unknown
Doppler factor
Unknown
Orbital elements
Apogee altitude
1,014 km
Perigee altitude
1,010.831 km
Semi-major axis
7,390.552 km
Eccentricity
0.00021
Inclination
50.0073°
RAAN
286.6296°
Arg. of periapsis
338.8634°
True anomaly
21.22549°
Mean anomaly
21.2166°
Eccentric anomaly
21.22105°
Mean motion
3.41608 °/min
Orbital period
105.38 mins
BSTAR
0.000038694
Loading maneuver chart data...
Computing Atmospheric mass density...
Loading historical data...
Loading historical data...
Loading historical data...
Loading historical data...
Loading historical data...
Loading historical data...
Loading historical data...

Documentation

Showing up to 5 results
|